DELTA 1 DEB, 27576

Orbit data source: Space-Track

DELTA 1 DEB, 27576 is space debris in SSO originally from a launch on Thu, 12 Jun 1975 UTC launched from the Air Force Western Test Range (AFWTR). Debris objects in space refer to the collection of defunct objects orbiting the Earth. Examples of debris include non-operational satellites, rocket bodies, and fragments generated from explosions, collisions, or faulty payload assembly.

Loading next visibility...
Identifier
27576, 1975-052LD
Orbit
SSO
Country
Flag of USUS
Related business
Manufacturer
Unknown
Mission
Spacecraft
Bus & Motor
Unknown
Mass
Unknown
Launch date (UTC)
1975-06-12 (51 years ago)
Launch vehicle
Unknown
Launch site
Air Force Western Test Range (AFWTR)
Object type
Payload
Rocket body
Debris
Shape & HBR
Unknown shape, 0.1 m
Radar Cross Section
Small (<0.1 m²)

Expand to show TLE details & history
Last TLE update: 16 hours ago

TLE from 16 hours ago
0 DELTA 1 DEB
1 27576U 75052LD  26034.50338964  .00000035  00000-0  87336-4 0  9998
2 27576  99.3003 244.7574 0116217 328.3528  60.1801 13.68124431742142
Epoch: 2026-02-03T12:04Z
TLE epoch observation values (Epoch: 2026-02-03T12:04:52.864Z)
Latitude
29.31634°
Longitude
-75.39507°
Altitude
967.953 km
Speed
7.391 km/s
True Right ascension
15h 58m 02s
True Declination
29° 10' 26"
Sunlit
Object was in daylight at epoch
Visualization orbit readout
Latitude
Unknown
Longitude
Unknown
Altitude
Unknown
Speed
Unknown
Apparent Right ascension
Unknown
Apparent Declination
Unknown
Sunlit
N/A
Visualization observer readout
Local Sidereal Time
06:25:51
Azimuth
Unknown
Elevation
Unknown
Doppler factor
Unknown
Orbital elements
Apogee altitude
1,089.357 km
Perigee altitude
917.781 km
Semi-major axis
7,381.706 km
Eccentricity
0.01162
Inclination
99.3003°
RAAN
244.7574°
Arg. of periapsis
328.3528°
True anomaly
61.34384°
Mean anomaly
60.1801°
Eccentric anomaly
60.76114°
Mean motion
3.42222 °/min
Orbital period
105.19 mins
BSTAR
0.000087336
Loading maneuver chart data...
Computing Atmospheric mass density...
Loading historical data...
Loading historical data...
Loading historical data...
Loading historical data...
Loading historical data...
Loading historical data...
Loading historical data...

Documentation

Showing up to 5 results
|